| time (UTC) | temp C | wind direction | speed KPH | gust KPH | rain 1hr cm | rain 24hr cm | rain mn cm | humidity % | barometer mb |
| 20260507163007 | 14 | 272 | 16.1 | 25.7 | 0.00 | 0.00 | 0.00 | 55 | 1015.0 |
| 20260507161505 | 13 | 249 | 17.7 | 27.4 | 0.00 | 0.00 | 0.00 | 54 | 1014.7 |
| 20260507160007 | 13 | 280 | 12.9 | 22.5 | 0.00 | 0.00 | 0.00 | 58 | 1014.7 |
| 20260507154502 | 13 | 250 | 14.5 | 22.5 | 0.00 | 0.00 | 0.00 | 59 | 1014.8 |
| 20260507153104 | 12 | 251 | 14.5 | 22.5 | 0.00 | 0.00 | 0.00 | 61 | 1015.0 |
| 20260507151555 | 12 | 264 | 12.9 | 22.5 | 0.00 | 0.00 | 0.00 | 65 | 1015.0 |
| 20260507150054 | 12 | 254 | 8.0 | 14.5 | 0.00 | 0.00 | 0.00 | 68 | 1015.1 |
| 20260507144554 | 12 | 243 | 9.7 | 16.1 | 0.00 | 0.00 | 0.00 | 67 | 1015.0 |
| 20260507143051 | 11 | 254 | 3.2 | 9.7 | 0.00 | 0.00 | 0.00 | 70 | 1014.9 |
| 20260507141550 | 10 | 211 | 8.0 | 11.3 | 0.00 | 0.00 | 0.00 | 71 | 1014.6 |
| 20260507134550 | 10 | 239 | 4.8 | 8.0 | 0.00 | 0.00 | 0.00 | 72 | 1014.5 |
| 20260507133047 | 10 | 225 | 4.8 | 9.7 | 0.00 | 0.00 | 0.00 | 71 | 1014.4 |
| 20260507131547 | 10 | 263 | 9.7 | 19.3 | 0.00 | 0.00 | 0.00 | 68 | 1014.4 |
| 20260507130058 | 10 | 216 | 8.0 | 17.7 | 0.00 | 0.00 | 0.00 | 67 | 1014.3 |
| 20260507124559 | 10 | 236 | 11.3 | 20.9 | 0.00 | 0.00 | 0.00 | 66 | 1014.1 |
| 20260507123042 | 10 | 239 | 12.9 | 17.7 | 0.00 | 0.00 | 0.00 | 66 | 1013.8 |
| 20260507121539 | 10 | 217 | 8.0 | 14.5 | 0.00 | 0.00 | 0.00 | 66 | 1013.8 |
| 20260507120038 | 10 | 216 | 6.4 | 16.1 | 0.00 | 0.00 | 0.00 | 65 | 1013.8 |
| 20260507114539 | 10 | 204 | 6.4 | 14.5 | 0.00 | 0.00 | 0.00 | 66 | 1013.7 |
| 20260507113035 | 10 | 230 | 9.7 | 22.5 | 0.00 | 0.00 | 0.00 | 66 | 1014.0 |
| 20260507111531 | 10 | 189 | 8.0 | 14.5 | 0.00 | 0.00 | 0.00 | 65 | 1014.0 |
| 20260507110033 | 11 | 241 | 9.7 | 16.1 | 0.00 | 0.00 | 0.00 | 64 | 1014.1 |
| 20260507104528 | 11 | 213 | 8.0 | 14.5 | 0.00 | 0.00 | 0.00 | 64 | 1014.1 |
| 20260507103025 | 11 | 176 | 6.4 | 17.7 | 0.00 | 0.00 | 0.00 | 63 | 1014.2 |
| 20260507101525 | 11 | 215 | 4.8 | 14.5 | 0.00 | 0.00 | 0.00 | 62 | 1014.4 |
| 20260507100025 | 11 | 209 | 9.7 | 17.7 | 0.00 | 0.00 | 0.00 | 61 | 1014.3 |
| 20260507094520 | 11 | 223 | 4.8 | 14.5 | 0.00 | 0.00 | 0.00 | 62 | 1014.4 |
| 20260507093026 | 11 | 170 | 3.2 | 11.3 | 0.00 | 0.00 | 0.00 | 62 | 1014.5 |
| 20260507091531 | 12 | 244 | 8.0 | 17.7 | 0.00 | 0.00 | 0.00 | 60 | 1014.5 |
| 20260507090017 | 12 | 229 | 8.0 | 16.1 | 0.00 | 0.00 | 0.00 | 59 | 1014.4 |
| 20260507084520 | 12 | 213 | 8.0 | 17.7 | 0.00 | 0.00 | 0.00 | 59 | 1014.5 |
| 20260507083014 | 11 | 198 | 3.2 | 8.0 | 0.00 | 0.00 | 0.00 | 61 | 1014.7 |
| 20260507081512 | 11 | 96 | 3.2 | 14.5 | 0.00 | 0.00 | 0.00 | 57 | 1014.8 |
| 20260507080011 | 12 | 263 | 9.7 | 20.9 | 0.00 | 0.00 | 0.00 | 56 | 1014.3 |
| 20260507074507 | 11 | 205 | 9.7 | 19.3 | 0.00 | 0.00 | 0.00 | 57 | 1014.5 |
| 20260507073005 | 11 | 170 | 4.8 | 11.3 | 0.00 | 0.00 | 0.00 | 59 | 1014.7 |
| 20260507071503 | 11 | 176 | 3.2 | 8.0 | 0.00 | 0.00 | 0.00 | 57 | 1014.8 |
| 20260507070115 | 11 | 175 | 4.8 | 8.0 | 0.00 | 0.00 | 0.00 | 56 | 1014.9 |
| 20260507064610 | 11 | 156 | 3.2 | 6.4 | 0.00 | 0.00 | 0.00 | 57 | 1014.7 |
| 20260507063100 | 12 | 154 | 4.8 | 6.4 | 0.00 | 0.00 | 0.00 | 55 | 1014.7 |
| 20260507061556 | 12 | 216 | 3.2 | 9.7 | 0.00 | 0.00 | 0.00 | 53 | 1014.8 |
| 20260507060054 | 13 | 244 | 6.4 | 11.3 | 0.00 | 0.00 | 0.00 | 52 | 1014.7 |
| 20260507054555 | 13 | 236 | 4.8 | 12.9 | 0.00 | 0.00 | 0.00 | 52 | 1014.6 |
| 20260507053053 | 13 | 230 | 8.0 | 19.3 | 0.00 | 0.00 | 0.00 | 51 | 1014.6 |
| 20260507051555 | 13 | 206 | 6.4 | 14.5 | 0.00 | 0.00 | 0.00 | 51 | 1014.5 |
| 20260507050051 | 14 | 263 | 11.3 | 19.3 | 0.00 | 0.00 | 0.00 | 48 | 1014.5 |
| 20260507044553 | 15 | 225 | 12.9 | 22.5 | 0.00 | 0.00 | 0.00 | 48 | 1014.5 |
| 20260507043050 | 15 | 261 | 9.7 | 20.9 | 0.00 | 0.00 | 0.00 | 47 | 1014.6 |
| 20260507041548 | 16 | 256 | 12.9 | 22.5 | 0.00 | 0.00 | 0.00 | 45 | 1014.4 |
| 20260507040046 | 16 | 271 | 12.9 | 33.8 | 0.00 | 0.00 | 0.00 | 45 | 1014.1 |
| 20260507034545 | 16 | 267 | 25.7 | 37.0 | 0.00 | 0.00 | 0.00 | 42 | 1013.8 |
| 20260507033046 | 15 | 220 | 6.4 | 9.7 | 0.00 | 0.00 | 0.00 | 49 | 1014.0 |
| 20260507031544 | 16 | 201 | 6.4 | 19.3 | 0.00 | 0.00 | 0.00 | 49 | 1014.1 |
| 20260507030044 | 16 | 239 | 14.5 | 22.5 | 0.00 | 0.00 | 0.00 | 47 | 1013.9 |
| 20260507024542 | 16 | 267 | 12.9 | 22.5 | 0.00 | 0.00 | 0.00 | 47 | 1013.7 |
| 20260507023041 | 17 | 250 | 12.9 | 29.0 | 0.00 | 0.00 | 0.00 | 45 | 1013.6 |
| 20260507021540 | 17 | 256 | 27.4 | 40.2 | 0.00 | 0.00 | 0.00 | 42 | 1013.4 |
| 20260507020043 | 17 | 260 | 22.5 | 33.8 | 0.00 | 0.00 | 0.00 | 42 | 1013.2 |
| 20260507014547 | 18 | 241 | 22.5 | 48.3 | 0.00 | 0.00 | 0.00 | 42 | 1013.1 |
| 20260507013049 | 18 | 240 | 24.1 | 37.0 | 0.00 | 0.00 | 0.00 | 41 | 1013.0 |
| 20260507011538 | 18 | 254 | 22.5 | 37.0 | 0.00 | 0.00 | 0.00 | 40 | 1013.2 |
| 20260507010050 | 18 | 265 | 27.4 | 38.6 | 0.00 | 0.00 | 0.00 | 41 | 1013.0 |
| 20260507004536 | 19 | 256 | 17.7 | 37.0 | 0.00 | 0.00 | 0.00 | 41 | 1013.3 |
| 20260507003036 | 20 | 253 | 25.7 | 38.6 | 0.00 | 0.00 | 0.00 | 39 | 1013.0 |
| 20260507001535 | 20 | 258 | 27.4 | 37.0 | 0.00 | 0.00 | 0.00 | 39 | 1012.6 |
| 20260507000034 | 20 | 242 | 20.9 | 37.0 | 0.00 | 0.00 | 0.00 | 38 | 1012.6 |
| 20260506234537 | 21 | 253 | 25.7 | 38.6 | 0.00 | 0.00 | 0.00 | 40 | 1012.5 |
| 20260506233052 | 20 | 255 | 24.1 | 37.0 | 0.00 | 0.00 | 0.00 | 40 | 1012.5 |
| 20260506231533 | 21 | 270 | 22.5 | 35.4 | 0.00 | 0.00 | 0.00 | 38 | 1012.5 |
| 20260506230029 | 21 | 271 | 24.1 | 33.8 | 0.00 | 0.00 | 0.00 | 38 | 1012.4 |
| 20260506224530 | 20 | 248 | 20.9 | 33.8 | 0.00 | 0.00 | 0.00 | 43 | 1012.6 |
| 20260506223029 | 21 | 254 | 20.9 | 38.6 | 0.00 | 0.00 | 0.00 | 43 | 1012.7 |
| 20260506221528 | 21 | 265 | 25.7 | 35.4 | 0.00 | 0.00 | 0.00 | 39 | 1012.6 |
| 20260506220029 | 22 | 258 | 25.7 | 35.4 | 0.00 | 0.00 | 0.00 | 41 | 1012.6 |
| 20260506214526 | 22 | 270 | 25.7 | 37.0 | 0.00 | 0.00 | 0.00 | 39 | 1012.9 |
| 20260506213026 | 22 | 264 | 24.1 | 41.8 | 0.00 | 0.00 | 0.00 | 41 | 1012.8 |
| 20260506211527 | 22 | 251 | 27.4 | 38.6 | 0.00 | 0.00 | 0.00 | 45 | 1012.7 |
| 20260506210031 | 22 | 268 | 25.7 | 40.2 | 0.00 | 0.00 | 0.00 | 49 | 1012.7 |
| 20260506204521 | 22 | 261 | 25.7 | 32.2 | 0.00 | 0.00 | 0.00 | 49 | 1012.7 |
| 20260506203020 | 22 | 253 | 19.3 | 37.0 | 0.00 | 0.00 | 0.00 | 52 | 1012.7 |
| 20260506201519 | 22 | 264 | 20.9 | 37.0 | 0.00 | 0.00 | 0.00 | 49 | 1012.7 |
| 20260506200033 | 22 | 259 | 17.7 | 32.2 | 0.00 | 0.00 | 0.00 | 47 | 1012.7 |
| 20260506194517 | 22 | 264 | 14.5 | 25.7 | 0.00 | 0.00 | 0.00 | 46 | 1012.6 |
| 20260506193013 | 22 | 249 | 11.3 | 20.9 | 0.00 | 0.00 | 0.00 | 50 | 1012.8 |
| 20260506191510 | 21 | 241 | 9.7 | 25.7 | 0.00 | 0.00 | 0.00 | 50 | 1013.2 |
| 20260506190007 | 21 | 234 | 9.7 | 24.1 | 0.00 | 0.00 | 0.00 | 49 | 1013.5 |
| 20260506184506 | 20 | 266 | 16.1 | 29.0 | 0.00 | 0.00 | 0.00 | 50 | 1013.7 |
| 20260506183005 | 20 | 270 | 20.9 | 29.0 | 0.00 | 0.00 | 0.00 | 51 | 1013.7 |
| 20260506181557 | 18 | 241 | 14.5 | 24.1 | 0.00 | 0.00 | 0.00 | 58 | 1013.8 |
| 20260506180057 | 18 | 284 | 16.1 | 24.1 | 0.00 | 0.00 | 0.00 | 60 | 1014.0 |
| 20260506174555 | 18 | 281 | 16.1 | 29.0 | 0.00 | 0.00 | 0.00 | 62 | 1013.9 |
| 20260506173108 | 18 | 270 | 17.7 | 25.7 | 0.00 | 0.00 | 0.00 | 57 | 1013.7 |
| 20260506171557 | 18 | 269 | 12.9 | 22.5 | 0.00 | 0.00 | 0.00 | 62 | 1013.9 |
| 20260506170100 | 18 | 254 | 14.5 | 22.5 | 0.00 | 0.00 | 0.00 | 60 | 1013.8 |
| 20260506164609 | 18 | 246 | 14.5 | 20.9 | 0.00 | 0.00 | 0.00 | 59 | 1013.7 |